[[{"header":{"parameterUnit":"m.s-1","parameterCategory":1,"la1":30.2991,"la2":30.254,"lo1":-89.0895,"lo2":-89.0444,"dy":0.0017,"dx":0.0017,"nx":28,"ny":28,"refTime":"2024-05-19T21:00:00:Z","depth":0,"parameterNumber":2,"parameterNumberName":"U-component_of_WINDS"},"data":[0,0,0,0,0,0,0,0,0,0,0,0,0,0,0,0,0,0,0,0,0,0,0,0,0,0,0,0,0,0,0,0,0,0,0,0,0,0,0,0,0,0,0,0,0,0,0,0,0,0,0,0,0,0,0,0,0,0,-0.1923,-0.1923,0,-0.187,-0.187,-0.1869,-0.1846,-0.1846,-0.1847,-0.1847,-0.1791,-0.1789,-0.1788,0,0,0,0,0,0,0,0,0,0,0,0,0,-0.2003,-0.2002,-0.1923,-0.1923,-0.1922,-0.187,-0.187,-0.1869,-0.1846,-0.1846,-0.1847,-0.1847,-0.1791,-0.179,-0.1788,0,0,0,0,0,0,0,0,0,0,0,0,0,-0.1961,-0.2002,-0.1923,-0.1905,-0.1902,-0.187,-0.187,-0.1869,-0.1846,-0.1846,-0.1847,-0.1847,-0.1792,-0.179,-0.1787,-0.177,0,0,-0.178,-0.1779,0,0,0,0,0,0,0,0,-0.1964,-0.1958,-0.1908,-0.1906,-0.1903,-0.1865,-0.1877,-0.1835,-0.1846,-0.1868,-0.1847,-0.1847,-0.1815,-0.1811,-0.1801,-0.1767,-0.1765,-0.178,-0.1779,-0.1778,-0.1777,0,0,0,0,0,0,0,-0.1967,-0.196,-0.1902,-0.1907,-0.1904,-0.1898,-0.1892,-0.1869,-0.1841,-0.1866,-0.1864,-0.1858,-0.1814,-0.1803,-0.1799,-0.1764,-0.178,-0.1778,-0.1777,-0.1776,-0.1713,-0.1713,0,0,0,0,0,0,-0.1973,-0.1963,-0.1904,-0.1901,-0.1935,-0.1897,-0.189,-0.1877,-0.1841,-0.1836,-0.1858,-0.1857,-0.1807,-0.1802,-0.1797,-0.1774,-0.1778,-0.1775,-0.1774,-0.1713,-0.1713,-0.1713,0,0,0,0,0,0,-0.1975,-0.1968,-0.1906,-0.1931,-0.1923,-0.1895,-0.1881,-0.1876,-0.1865,-0.1836,-0.183,-0.1852,-0.1807,-0.1801,-0.1777,-0.1772,-0.1774,-0.1772,-0.1714,-0.1713,-0.1713,-0.1728,0,0,0,0,0,0,-0.1977,-0.1969,-0.1962,-0.1931,-0.1922,-0.1887,-0.188,-0.1875,-0.1861,-0.186,-0.1829,-0.1824,-0.1807,-0.1781,-0.1775,-0.1769,-0.177,-0.1714,-0.1713,-0.1713,-0.1727,-0.1728,-0.1728,0,0,0,0,0,-0.198,-0.1968,-0.1962,-0.1955,-0.1913,-0.1887,-0.1881,-0.1862,-0.1861,-0.1854,-0.1835,-0.1825,-0.1773,-0.1778,-0.1771,-0.1765,-0.1714,-0.1714,-0.1713,-0.1727,-0.1728,-0.1728,0,0,0,0,0,0,-0.1998,-0.1964,-0.1956,-0.1934,-0.1914,-0.1883,-0.1873,-0.1863,-0.1842,-0.1842,-0.1819,-0.1812,-0.179,-0.1775,-0.1781,-0.1746,-0.1743,-0.1741,-0.1756,-0.1756,-0.1757,-0.176,-0.1768,0,0,0,0,0,-0.2,-0.1982,-0.1953,-0.1936,-0.1926,-0.1902,-0.1889,-0.1877,-0.1854,-0.1845,-0.1825,-0.1803,-0.1782,-0.1768,-0.1747,-0.1725,-0.1718,-0.1717,-0.1718,-0.1718,-0.1716,-0.1703,-0.1702,-0.1711,-0.1711,-0.1711,0,0,-0.2003,-0.1982,-0.1972,-0.1939,-0.1922,-0.1903,-0.1894,-0.1875,-0.1861,-0.1842,-0.1818,-0.1803,-0.1777,-0.1754,-0.1743,-0.174,-0.1712,-0.1717,-0.1718,-0.1716,-0.1703,-0.1702,-0.1701,-0.1711,-0.1711,-0.1711,0,0,-0.1999,-0.1981,-0.1965,-0.1948,-0.1922,-0.1905,-0.1902,-0.1872,-0.1861,-0.1837,-0.1823,-0.1805,-0.177,-0.1752,-0.1738,-0.1727,-0.1716,-0.172,-0.1722,-0.1709,-0.1709,-0.1708,-0.1703,-0.1702,-0.1719,-0.1719,-0.1719,0,-0.2005,-0.1977,-0.1958,-0.1939,-0.1925,-0.1908,-0.1891,-0.1875,-0.1843,-0.1834,-0.1832,-0.1787,-0.1768,-0.174,-0.1738,-0.1727,-0.1722,-0.1724,-0.171,-0.1709,-0.1708,-0.1704,-0.1702,-0.172,-0.172,-0.172,-0.172,0,-0.1987,-0.1967,-0.1957,-0.1927,-0.1912,-0.1895,-0.1872,-0.1859,-0.1848,-0.1831,-0.1807,-0.1784,-0.1758,-0.175,-0.1739,-0.1721,-0.1721,-0.1715,-0.1712,-0.1709,-0.1704,-0.1702,-0.1721,-0.172,-0.172,-0.172,0,0,-0.1992,-0.1952,-0.1949,-0.1935,-0.1904,-0.1889,-0.187,-0.1845,-0.1834,-0.1812,-0.1796,-0.1766,-0.1761,-0.1745,-0.1731,-0.1721,-0.1713,-0.1716,-0.1715,-0.1716,-0.1691,-0.1695,-0.1693,-0.1706,-0.1705,-0.1705,-0.1693,0,-0.1983,-0.195,-0.1932,-0.1906,-0.1887,-0.1871,-0.1854,-0.1834,-0.1818,-0.18,-0.1782,-0.1761,-0.1756,-0.1747,-0.1735,-0.1716,-0.1707,-0.1717,-0.1689,-0.1689,-0.1696,-0.1691,-0.1695,-0.1684,-0.1691,-0.169,-0.169,0,-0.1969,-0.1948,-0.192,-0.1891,-0.1883,-0.1869,-0.1844,-0.1827,-0.1803,-0.1792,-0.1775,-0.1762,-0.1741,-0.174,-0.1711,-0.1718,-0.1705,-0.1694,-0.1694,-0.169,-0.1689,-0.1686,-0.168,-0.1679,-0.1687,-0.1687,-0.1688,0,-0.1975,-0.194,-0.1918,-0.1907,-0.1874,-0.1864,-0.1849,-0.1826,-0.1812,-0.179,-0.178,-0.1757,-0.1743,-0.1725,-0.1705,-0.1706,-0.1678,-0.1675,-0.1668,-0.1668,-0.1662,-0.1663,-0.1654,-0.1656,-0.1656,-0.1656,-0.1656,0,-0.1967,-0.195,-0.1921,-0.1908,-0.1888,-0.1868,-0.1849,-0.1833,-0.1812,-0.1795,-0.1779,-0.1764,-0.1739,-0.172,-0.1705,-0.1682,-0.1677,-0.1667,-0.1663,-0.1668,-0.1669,-0.1659,-0.1659,-0.1655,-0.1655,-0.1655,-0.1655,0,-0.197,-0.195,-0.1926,-0.1896,-0.1888,-0.1875,-0.1849,-0.1836,-0.1819,-0.1798,-0.1792,-0.1766,-0.1743,-0.1722,-0.1691,-0.168,-0.1658,-0.1653,-0.1666,-0.1664,-0.1657,-0.1658,-0.1641,-0.1638,-0.1643,-0.1643,-0.1643,0,-0.1966,-0.1953,-0.1922,-0.191,-0.1896,-0.1876,-0.1861,-0.1841,-0.1826,-0.1798,-0.1787,-0.1763,-0.1743,-0.1706,-0.1685,-0.1661,-0.1655,-0.1651,-0.1651,-0.1657,-0.1654,-0.1655,-0.1653,-0.1651,-0.1651,-0.1651,-0.1651,0,-0.1961,-0.1951,-0.1931,-0.1908,-0.1891,-0.1872,-0.1851,-0.1842,-0.1817,-0.1802,-0.1778,-0.1762,-0.1731,-0.1707,-0.1681,-0.1665,-0.1654,-0.1651,-0.1648,-0.1653,-0.1661,-0.1656,-0.1666,-0.1652,-0.1652,-0.1652,-0.1651,-0.1651,-0.196,-0.1947,-0.1923,-0.1902,-0.1884,-0.1866,-0.1851,-0.1833,-0.1813,-0.1786,-0.1775,-0.1751,-0.1727,-0.169,-0.1675,-0.1656,-0.1653,-0.1649,-0.1648,-0.1647,-0.1648,-0.1665,-0.1651,-0.1651,-0.1651,-0.1651,-0.1651,0,-0.1953,-0.1937,-0.1917,-0.1889,-0.1872,-0.1864,-0.1841,-0.1827,-0.1806,-0.1784,-0.1765,-0.1737,-0.1714,-0.169,-0.1665,-0.1654,-0.1648,-0.1648,-0.1649,-0.1645,-0.1651,-0.1656,-0.1654,-0.1654,-0.1654,-0.1654,-0.1654,-0.1654,-0.1948,-0.1926,-0.1913,-0.1882,-0.1866,-0.1843,-0.183,-0.1813,-0.1796,-0.1766,-0.1746,-0.1731,-0.1709,-0.1682,-0.166,-0.1654,-0.1645,-0.1647,-0.1639,-0.1645,-0.1645,-0.1645,-0.1649,-0.1645,-0.1645,-0.1634,-0.1634,-0.1634]},{"header":{"parameterUnit":"m.s-1","parameterCategory":1,"la1":30.2991,"la2":30.254,"lo1":-89.0895,"lo2":-89.0444,"dy":0.0017,"dx":0.0017,"nx":28,"ny":28,"refTime":"2024-05-19T21:00:00:Z","depth":0,"parameterNumber":3,"parameterNumberName":"V-component_of_WINDS"},"data":[0,0,0,0,0,0,0,0,0,0,0,0,0,0,0,0,0,0,0,0,0,0,0,0,0,0,0,0,0,0,0,0,0,0,0,0,0,0,0,0,0,0,0,0,0,0,0,0,0,0,0,0,0,0,0,0,0,0,0.211,0.211,0,0.2158,0.2158,0.2159,0.2135,0.2134,0.2132,0.2131,0.2181,0.2184,0.2186,0,0,0,0,0,0,0,0,0,0,0,0,0,0.1996,0.1998,0.2109,0.211,0.2111,0.2157,0.2158,0.2159,0.2135,0.2133,0.2132,0.2131,0.218,0.2183,0.2186,0,0,0,0,0,0,0,0,0,0,0,0,0,0.2045,0.1999,0.2109,0.2104,0.2104,0.2157,0.2158,0.2159,0.2135,0.2133,0.2132,0.213,0.2179,0.2183,0.2187,0.2248,0,0,0.2198,0.22,0,0,0,0,0,0,0,0,0.2042,0.2049,0.2105,0.2105,0.2105,0.2138,0.2136,0.2189,0.2136,0.2124,0.2131,0.2129,0.2169,0.2173,0.2186,0.225,0.2252,0.2199,0.2201,0.2203,0.2204,0,0,0,0,0,0,0,0.2039,0.2047,0.2128,0.2105,0.2106,0.2099,0.2104,0.2146,0.2156,0.2125,0.2123,0.2129,0.2168,0.2183,0.2187,0.2253,0.2199,0.2202,0.2204,0.2206,0.2364,0.2366,0,0,0,0,0,0,0.2035,0.2044,0.2127,0.213,0.2068,0.2103,0.2108,0.2129,0.2156,0.2158,0.213,0.2128,0.2177,0.2183,0.2189,0.2258,0.2202,0.2206,0.2208,0.2362,0.2365,0.2367,0,0,0,0,0,0,0.2033,0.2043,0.2125,0.2087,0.2096,0.2107,0.2131,0.2131,0.2146,0.216,0.2162,0.2143,0.2176,0.2184,0.2232,0.226,0.2208,0.2211,0.236,0.2363,0.2366,0.24,0,0,0,0,0,0,0.203,0.2042,0.2066,0.2087,0.2099,0.2168,0.2133,0.2134,0.2152,0.2149,0.2173,0.2175,0.2175,0.2227,0.2236,0.2264,0.2214,0.2358,0.2361,0.2365,0.2397,0.2404,0.241,0,0,0,0,0,0.2026,0.2075,0.2067,0.2078,0.2129,0.217,0.2176,0.2175,0.2155,0.2178,0.2186,0.2174,0.2256,0.2232,0.2242,0.2272,0.2356,0.236,0.2365,0.2394,0.2402,0.241,0,0,0,0,0,0,0.2058,0.2078,0.207,0.2127,0.2147,0.2166,0.2195,0.2186,0.2212,0.2208,0.2206,0.2211,0.2261,0.2272,0.2245,0.233,0.2302,0.2309,0.2321,0.233,0.2336,0.2332,0.2217,0,0,0,0,0,0.2072,0.2104,0.2119,0.2169,0.2179,0.2185,0.2203,0.2201,0.2221,0.2229,0.2242,0.2262,0.2292,0.2312,0.234,0.2398,0.2401,0.2424,0.2431,0.2436,0.2441,0.2469,0.2478,0.2381,0.2381,0.2381,0,0,0.2101,0.2116,0.2136,0.2175,0.219,0.2222,0.2193,0.2229,0.2252,0.2235,0.228,0.229,0.2312,0.2365,0.2389,0.2375,0.2469,0.2442,0.2446,0.2448,0.2474,0.2483,0.2492,0.2384,0.2384,0.2383,0,0,0.2169,0.2185,0.2225,0.224,0.2262,0.2266,0.2276,0.2295,0.23,0.2346,0.2333,0.236,0.2413,0.2428,0.2443,0.2513,0.2501,0.2523,0.2558,0.2585,0.2592,0.2599,0.2621,0.2629,0.2528,0.2528,0.2529,0,0.2202,0.225,0.2248,0.2283,0.23,0.2285,0.2325,0.234,0.237,0.2382,0.2366,0.2429,0.2444,0.2497,0.2514,0.2528,0.2537,0.2519,0.2592,0.2598,0.2604,0.2625,0.2634,0.2531,0.253,0.253,0.253,0,0.2288,0.2321,0.2351,0.2379,0.2399,0.2437,0.2439,0.246,0.2455,0.2459,0.2504,0.252,0.255,0.2563,0.256,0.2616,0.2606,0.2592,0.2563,0.2616,0.2635,0.2643,0.2534,0.2533,0.2532,0.2532,0,0,0.2378,0.2402,0.2413,0.2424,0.2446,0.2471,0.2508,0.2535,0.2551,0.2573,0.2602,0.2645,0.263,0.2647,0.2645,0.2669,0.2719,0.265,0.2651,0.266,0.2777,0.2786,0.2796,0.2712,0.2713,0.2715,0.2774,0,0.2445,0.2508,0.2505,0.2563,0.2592,0.2577,0.2608,0.2624,0.2629,0.2654,0.2659,0.2688,0.2669,0.2678,0.2701,0.2708,0.2742,0.2704,0.2736,0.2738,0.2729,0.2807,0.2817,0.2873,0.2782,0.2784,0.2785,0,0.2533,0.2554,0.2614,0.2628,0.264,0.2668,0.2692,0.2716,0.2734,0.2735,0.2752,0.2745,0.278,0.2752,0.2799,0.2773,0.2786,0.2791,0.2793,0.2794,0.2763,0.2807,0.2891,0.2898,0.2797,0.2796,0.2795,0,0.2588,0.2633,0.2673,0.2684,0.2703,0.2722,0.273,0.2746,0.2762,0.2782,0.2792,0.2817,0.2831,0.285,0.2849,0.2829,0.2895,0.2868,0.2896,0.2895,0.2909,0.2908,0.2993,0.2922,0.2922,0.2922,0.2921,0,0.2662,0.2698,0.2698,0.2723,0.2763,0.2759,0.2798,0.2805,0.2818,0.2843,0.2833,0.2856,0.2855,0.2879,0.2879,0.2915,0.2923,0.2923,0.2922,0.2923,0.2922,0.293,0.2925,0.2924,0.2923,0.2923,0.2922,0,0.273,0.2732,0.2775,0.2788,0.2792,0.282,0.2831,0.2854,0.2857,0.2888,0.2896,0.2901,0.2927,0.2929,0.2961,0.296,0.3004,0.3,0.2998,0.2996,0.3022,0.3019,0.3114,0.3125,0.3049,0.3049,0.305,0,0.2776,0.2803,0.2818,0.2834,0.2843,0.2868,0.2883,0.2881,0.2897,0.2917,0.2936,0.2962,0.2982,0.3025,0.3031,0.3055,0.305,0.3081,0.3053,0.3051,0.3046,0.3044,0.3045,0.3086,0.3087,0.3088,0.3088,0,0.2856,0.2854,0.2876,0.2898,0.2916,0.2933,0.2949,0.2962,0.2961,0.298,0.3006,0.3021,0.3052,0.3076,0.3098,0.3107,0.3097,0.3097,0.3104,0.3104,0.31,0.3099,0.3009,0.3095,0.3094,0.3094,0.3093,0.3093,0.2912,0.2934,0.2947,0.2971,0.2982,0.2997,0.3017,0.3022,0.3044,0.3068,0.3065,0.3094,0.3107,0.3135,0.3145,0.3167,0.3156,0.3167,0.3169,0.3171,0.3173,0.3098,0.3171,0.3171,0.3171,0.3171,0.3171,0,0.2988,0.2995,0.3018,0.3039,0.3057,0.3045,0.3062,0.3077,0.3102,0.3116,0.3135,0.3164,0.3187,0.3194,0.3216,0.3231,0.3227,0.3237,0.3235,0.3236,0.3183,0.3173,0.324,0.324,0.324,0.324,0.324,0.324,0.303,0.3065,0.3065,0.3105,0.3112,0.3139,0.3149,0.3161,0.3171,0.3203,0.3222,0.3226,0.3236,0.3258,0.3278,0.3279,0.3287,0.3298,0.3297,0.3247,0.324,0.3233,0.3224,0.33,0.33,0.3348,0.3349,0.3349]}]]